NOAA 16 DEB

Satellite information

Favourite Embed

Satellite Type and Status

DEBRISIN ORBIT

Key statistics

Satellite NOAA 16 DEB at a glance.

Uptime

9055

Days in orbit

Revolutions

≈ 14.3

Per day

Orbit

SSO

Sun Synchronous Orbit

Inclination

98.8

Latest

Satellite identification and parameters

Extended collection of information and parameters for NOAA 16 DEB.

Object identification

Identified? True

Debris? True

Object name: NOAA 16 DEB

International designator: 2000-055KB

Object number (NORAD): 41398

Object ID (CCSDS): 41398

Country: UNITED STATES OF AMERICA (US)

Current information (Y/N): Y

RCS size: SMALL

Orbital parameters

Period: 100.408 minutes

Inclination: 98.8075 deg

SMA: 7156.048 km

Apoapsis: 790.446 km

Periapsis: 765.381 km

RAAN: 296.9529 deg

Eccentricy: 0.0017513

Argument of periapsis: 158.0988 deg

Mean anomaly: 202.0948 deg

Mean motion: 14.34144403 rev/day

Mean motion (dot): 0.00004068 rev/day2

B* drag term: 0.0014661 1/REarth

Two-line elements (TLE)

Creation date: July 5, 2025, 5:45 p.m.

Reference frame: TEME

Reference center: EARTH

Epoch: July 5, 2025, 1:39 p.m. UTC

TLE line 0: 0 NOAA 16 DEB

TLE line 1: 1 41398U 00055KB 25186.56912054 .00004068 00000-0 14661-2 0 9997

TLE line 2: 2 41398 98.8075 296.9529 0017513 158.0988 202.0948 14.34144403484494

Live tracking on map

Real-time ground track for satellite NOAA 16 DEB.

In-orbit conjunctions

A list of the most updated potential collisions computed for object NOAA 16 DEB.

Target Orbit TCA Probability of collision Miss distance Type
CZ-6A R/B LEO 2025-06-28 14:29:35 0.0004997324 151.0 (m) ROCKET BODY
DELTA 1 DEB SSO 2025-04-13 03:50:21 0.0002922919 62.0 (m) DEBRIS
CZ-6A DEB LEO 2025-03-02 12:38:36 0.0003215419 218.0 (m) DEBRIS
SL-8 R/B LEO 2024-11-09 13:39:57 0.0001029334 571.0 (m) ROCKET BODY
CZ-6A DEB SSO 2024-07-02 10:42:19 0.0002205755 70.0 (m) DEBRIS

Associated space launch

The NOAA K, L and M POES satellites begin the fifth generation of improved environmental monitoring in support of NOAA missions. The instrument payload has significant improvements and additions/deletions. The instrument changes have effected the spacecraft subsystems and data formats.

NOAA 16 DEB was lifted into orbit during the mission ‘Titan II SLV | NOAA 16’, on board a Titan II SLV space rocket.

The launch took place on Sept. 21, 2000, 10:22 a.m. from Space Launch Complex 4W.

For more information about the launch, click the button.

Launch to space Titan II SLV | NOAA 16
Titan II SLV | NOAA 16

Agency: N/A

Status: Launch Successful

Launch date: Sept. 21, 2000, 10:22 a.m. UTC

Rocket: Titan II SLV

Launch pad: Space Launch Complex 4W

Location: Vandenberg SFB, CA, USA

...

Latest news about this satellite

There are no fresh news available about this satellite. Check back as we update our databases every day.


Newsletter sign-up

Weekly statistics, charts and insights to help you stay on top of the space industry.